www.pogodaiklimat.ru

Погода и климат >> Архив погоды >> Россия >> Якутия >> Шелагонцы


АРХИВ ПОГОДЫ в Шелагонцах

Время (UTC), дата Ветер
(напр.,м/с)
 
Видим.   Явления Облачность Т
(С)
Тd
(С)
f
(%)
Тe
(С)
Тes
(С)
Комфортность P
(гПа)
Po
(гПа)
Тmin
(С)
Tmax
(С)
R
(мм)
R24
(мм)
S
(см)
06 9.01 В 1 50 км {метель} 3/0
[Cc]
-34.5 -35.6 90 -39 -39 опасность
обморожения
1007.7 974.2
09 9.01 штиль 0 50 км ясно -36.5 -37.6 89 -37 -37 опасность
обморожения
1009.6 975.8
12 9.01 штиль 0 50 км ясно -41.0 -42.6 84 -41 -41 опасность
обморожения
1011.2 976.7 -34.1
15 9.01 штиль 0 50 км ясно -42.5 -43.8 87 -43 -43 опасность
обморожения
1012.1 977.3
18 9.01 штиль 0 50 км ясно -44.7 -45.9 88 -45 -45 опасность
обморожения
1013.3 978.2
21 9.01 штиль 0 20 км слаб. снег 8/0
[Cs]
-45.5 -46.1 94 -46 -46 опасность
обморожения
1014.2 979.0
00 10.01 штиль 0 20 км слаб. снег 10/0
[Cs]
-46.3 -47.5 87 -46 -46 опасность
обморожения
1014.8 979.6 -46.6 0.2 18
03 10.01 штиль 0 50 км {снег} 1/0
[Cc]
-47.7 -49.5 81 -48 -48 опасность
обморожения
1015.3 979.6
06 10.01 штиль 0 50 км {снег} 3/0
[Cs]
-46.5 -48.5 80 -47 -47 опасность
обморожения
1015.1 979.6
09 10.01 штиль 0 50 км 3/0
[Cc]
-47.0 -48.5 84 -47 -47 опасность
обморожения
1015.0 979.5
12 10.01 штиль 0 50 км ясно -48.0 -49.5 84 -48 -48 опасность
обморожения
1015.2 979.5 -46.5 0.0
15 10.01 штиль 0 50 км ясно -47.9 -49.5 83 -48 -48 опасность
обморожения
1014.5 978.9
18 10.01 штиль 0 20 км слаб. снег 10/0
[Cs]
-44.9 -46.7 82 -45 -45 опасность
обморожения
1013.4 978.3
21 10.01 штиль 0 20 км слаб. снег 10/0
[Cs]
-43.9 -45.1 88 -44 -44 опасность
обморожения
1012.5 977.6
00 11.01 штиль 0 20 км слаб. снег 10/0
[Cs]
-42.5 -43.8 87 -43 -43 опасность
обморожения
1011.4 976.6 -48.1 0.2 18
03 11.01 штиль 0 50 км {снег} 10/0
[As trans Cs]
-41.0 -42.6 84 -41 -41 опасность
обморожения
1010.3 975.9
06 11.01 штиль 0 50 км {снег} 10/0
[Cs]
-38.7 -40.2 86 -39 -39 опасность
обморожения
1009.9 975.9
09 11.01 штиль 0 50 км ясно -43.3 -45.1 82 -43 -43 опасность
обморожения
1011.9 977.1
12 11.01 штиль 0 50 км ясно -46.8 -48.5 83 -47 -47 опасность
обморожения
1014.1 978.7 -38.7 0.0
15 11.01 штиль 0 50 км ясно -48.5 -49.5 89 -49 -49 опасность
обморожения
1015.8 980.0
18 11.01 штиль 0 50 км ясно -49.5 -50.7 87 -50 -50 опасность
обморожения
1017.4 981.4
21 11.01 штиль 0 50 км ясно -50.7 -52.0 86 -51 -51 опасность
обморожения
1019.3 983.0
00 12.01 ЮВ 1 10 км снег 10/0
[As op Cs]
-45.6 -47.5 81 -51 -51 опасность
обморожения
1020.2 984.7 -50.8 0.3 18
03 12.01 штиль 0 50 км {снег} 10/0
[As op Cs]
-45.1 -46.7 84 -45 -45 опасность
обморожения
1021.2 985.8
06 12.01 ЮВ 1 50 км {снег} 6/0
[Ac As Cs]
-47.7 -49.5 81 -54 -54 опасность
обморожения
1023.0 987.1
09 12.01 ЮВ 3 50 км 4/0
[Cc]
-48.6 -50.7 79 -62 -62 опасность
обморожения
1024.0 988.0
12 12.01 штиль 0 50 км 3/0
[Cs]
-47.9 -49.5 83 -48 -48 опасность
обморожения
1025.1 989.1 -45.1 0.0
15 12.01 штиль 0 20 км слаб. снег 10/0
[Cs]
-47.5 -49.5 80 -48 -48 опасность
обморожения
1025.5 989.5
18 12.01 штиль 0 50 км {снег} 10/0
[Cs]
-45.6 -47.5 81 -46 -46 опасность
обморожения
1026.1 990.4
21 12.01 штиль 0 50 км 10/0
[Cs]
-46.2 -47.5 86 -46 -46 опасность
обморожения
1026.8 991.1
00 13.01 штиль 0 20 км слаб. снег 10/0
[Cs]
-45.0 -46.7 83 -45 -45 опасность
обморожения
1026.8 991.3 -48.4 0.2 18
03 13.01 штиль 0 50 км в посл. час снег 10/0
[Cs]
-47.1 -48.5 85 -47 -47 опасность
обморожения
1028.2 992.3
06 13.01 штиль 0 50 км {снег} 10/0
[Ci sp]
-46.5 -48.5 80 -47 -47 опасность
обморожения
1029.6 993.7
09 13.01 штиль 0 50 км 3/0
[Ci sp]
-46.0 -47.5 85 -46 -46 опасность
обморожения
1031.1 995.2
12 13.01 штиль 0 50 км ясно -49.1 -50.7 83 -49 -49 опасность
обморожения
1033.3 996.9 -46.0 0.0
15 13.01 штиль 0 50 км ясно -51.1 -52.0 90 -51 -51 опасность
обморожения
1034.5 997.7
18 13.01 штиль 0 50 км ледяные иглы {снег} ясно -52.6 -53.6 89 -53 -53 опасность
обморожения
1035.8 998.6
21 13.01 штиль 0 50 км {снег} ясно -52.6 -53.6 89 -53 -53 опасность
обморожения
1036.2 999.0
00 14.01 штиль 0 50 км {снег} ясно -54.0 -55.4 84 -54 -54 опасность
обморожения
1036.5 999.2 -54.0 0.0 18
03 14.01 штиль 0 50 км ясно -53.8 -55.4 82 -54 -54 опасность
обморожения
1036.4 999.1 -54.2
06 14.01 штиль 0 50 км ясно -52.4 -53.6 87 -52 -52 опасность
обморожения
1035.6 998.6
09 14.01 штиль 0 50 км ясно -53.8 -55.4 82 -54 -54 опасность
обморожения
1035.8 998.5
12 14.01 штиль 0 50 км ясно -53.4 -55.4 79 -53 -53 опасность
обморожения
1035.8 998.6 -52.4
15 14.01 штиль 0 50 км ясно -53.6 -55.4 80 -54 -54 опасность
обморожения
1035.8 998.5
18 14.01 штиль 0 50 км ясно -53.3 -55.4 78 -53 -53 опасность
обморожения
1036.4 999.2
21 14.01 штиль 0 50 км ясно -53.4 -55.4 79 -53 -53 опасность
обморожения
1037.2 1000.0
00 15.01 штиль 0 50 км ледяные иглы {снег} ясно -53.5 -55.4 79 -54 -54 опасность
обморожения
1038.2 1000.8 -53.7 0.0 18
03 15.01 штиль 0 50 км {снег} 1/0
[Cs]
-53.5 -55.4 79 -54 -54 опасность
обморожения
1038.3 1000.9
06 15.01 штиль 0 50 км {снег} 3/0
[Cs]
-51.4 -53.6 77 -51 -51 опасность
обморожения
1037.9 1000.8
09 15.01 штиль 0 50 км 3/0
[Cc]
-52.2 -53.6 85 -52 -52 опасность
обморожения
1037.9 1000.8
12 15.01 штиль 0 50 км 3/0
[Cc]
-52.2 -53.6 85 -52 -52 опасность
обморожения
1037.9 1000.8
15 15.01 штиль 0 50 км ледяные иглы {снег} 1/0
[]
-52.7 -53.6 90 -53 -53 опасность
обморожения
1037.2 1000.0 -51.4 0.0
18 15.01 штиль 0 50 км ледяные иглы {снег} 3/0
[Cs]
-52.3 -53.6 86 -52 -52 опасность
обморожения
1035.9 998.9
21 15.01 В 3 50 км ледяные иглы {снег} 10/0
[Cs]
-42.7 -44.4 83 -55 -55 опасность
обморожения
1029.5 994.2
00 16.01 В 3 20 км слаб. снег 10/0
[As op Cs]
-36.7 -37.6 91 -48 -48 опасность
обморожения
1026.0 991.6 -52.4 0.0 18

 

Местоположение метеостанции Шелагонцы (Якутия, Россия): широта 66.25 долгота 114.20 высота над уровнем моря 236 м.

В архиве по умолчанию представлена погода в Шелагонцах за последнюю неделю. Архивные данные за месяц целиком и за предыдущие месяцы, начиная с января 2011 года, Вы можете получить, выбрав интересующий диапазон дат из раскрывающегося списка и нажав кнопку "Ввод!".


*Определитесь, кто Вы:
робот инопланетянин человек

Внимание! Время в таблицах - всемирное. Для получения местного времени необходимо прибавить поправку, которая равна 9 ч.

Смотрите также архив погоды в соседних городах и на ближайших метеорологических станциях:

Погода в Полярном (Якутия, Россия) (96 км)
Погода в Айхале (Якутия, Россия) (129 км)
Погода в Эйке (Якутия, Россия) (146 км)
Погода в Хабардино (Якутия, Россия) (200 км)
Погода в Чумпуруке (Якутия, Россия) (257 км)
Погода в Оленеке (Якутия, Россия) (262 км)
Погода в Ярольине (Якутия, Россия) (269 км)
Погода в Сухане (Якутия, Россия) (316 км)
Погода в Чернышевском (Якутия, Россия) (368 км)
Погода в Нюрбе (Якутия, Россия) (383 км)

Пояснения к столбцам:

Ветер - указаны скорость ветра в м/с - средняя за 10 мин, порывы в срок и между сроками (в фигурных скобках) и направление, откуда дует ветер: С - северный, СВ - северо-восточный, В - восточный, ЮВ - юго-восточный, Ю - южный, ЮЗ - юго-западный, З - западный, СЗ - северо-западный.
Видимость - горизонтальная дальность видимости в метрах или километрах. При видимости от 1 до 10 км при отсутствии осадков обычно наблюдается дымка, при ухудшении видимости до 1 км и менее - туман. В сухую погоду видимость может ухудшаться дымом, пылью или мглою.
Явления - указаны атмосферные явления, наблюдавшиеся в срок или в последний час перед сроком; фигурными скобками обозначены явления, наблюдавшиеся между сроками (за 1-3 часа до срока); квадратными скобками обозначены град или гололедные отложения с указанием их диаметра в мм.
Облачность - указаны через наклонную черту общая и нижняя облачность в баллах и высота нижней границы облаков в метрах; квадратными скобками обозначены формы облаков: Ci - перистые, Cs - перисто-слоистые, Cc - перисто-кучевые, Ac - высококучевые, As - высокослоистые, Sc - слоисто-кучевые, Ns - слоисто-дождевые, Cu - кучевые, Cb - кучево-дождевые. Подробнее классификацию облаков см. в Атласе облаков (PDF).
T - Температура воздуха - температура, измеренная на высоте 2 м над землей.
Td - Температура точки росы - температура, при понижении до которой содержащийся в воздухе водяной пар достигнет насыщения.
f - Относительная влажность воздуха - влажноcть воздуха, измеренная на высоте 2 м над землей.
Te - Эффективная температура - температура, которую ощущает одетый по сезону человек в тени. Характеристика душности погоды. При расчете учитывается влияние влажности воздуха и скорости ветра на теплоощущения человека.
Tes - Эффективная температура на солнце - температура, которую ощущает человек, с поправкой на солнечный нагрев. Характеристика знойности погоды. Зависит от высоты солнца над горизонтом, облачности и скорости ветра. Ночью, в пасмурную погоду, а также при ветре 12 м/с и более поправка равна нулю.
P - Атмосферное давление - приведенное к уровню моря атмосферное давление.
Po - Атмосферное давление - измеренное на уровне метеостанции атмосферное давление.
Tmin - Минимальная температура - минимум температуры воздуха на высоте 2 м над землей.
Tmax - Максимальная температура - максимум температуры воздуха на высоте 2 м над землей.
R - Количество осадков - Количество выпавших осадков за период времени, мм. При наведении курсора мыши на число - период времени, за который выпало указанное количество осадков.
R24 - Количество осадков - Количество выпавших осадков за 24 часа, мм.
S - Снежный покров - Высота снежного покрова, см. При наведении курсора мыши на число - состояние снежного покрова и степень покрытия местности в баллах.